Andrews, NC

2:51 PM EDT on May 28, 2017 (GMT -0400)
Andrews

Weather History for KRHP - October, 2014

Change the Weather History Date:

Friday, October 3, 2014

  Actual Average (KMMI) Record (KMMI)
Temperature  
Mean Temperature 66 °F -  
Max Temperature 73 °F 75 °F 80 °F (2016)
Min Temperature 58 °F 48 °F 48 °F (2016)
Cooling Degree Days 1    
Growing Degree Days 16 (Base 50)    
Moisture  
Dew Point 63 °F    
Average Humidity 91    
Maximum Humidity 99    
Minimum Humidity 76    
Precipitation  
Precipitation 0.37 in - - ()
Sea Level Pressure  
Sea Level Pressure 29.94 in    
Wind  
Wind Speed 3 mph (West)    
Max Wind Speed 15 mph    
Max Gust Speed 20 mph    
Visibility 10 miles    
Events Rain    
Averages and records for this station are not official NWS values.
T = Trace of Precipitation, MM = Missing Value Source: NWS Daily Summary

Daily Weather History Graph

Daily Weather History Graph

Search for Another Location

Airport or City:

Trip Planner

Search our weather history database for the weather conditions in past years. The results will help you decide how hot, cold, wet, or windy it might be!

Date:

Astronomy

Oct. 03, 2014 Rise Set
Actual Time 7:31 AM EDT 7:16 PM EDT
Civil Twilight 7:06 AM EDT 7:41 PM EDT
Nautical Twilight 6:37 AM EDT 8:11 PM EDT
Astronomical Twilight 6:07 AM EDT 8:40 PM EDT
Moon 3:59 PM EDT (10/3) 2:02 AM EDT (10/3)
Length of Visible Light 12h 35m
Length of Day
11h 44m
Waxing Gibbous, 71% of the Moon is Illuminated
Oct 3
Waxing Gibbous
Oct 8
Full
Oct 15
Last Quarter
Oct 23
New
Oct 30
First Quarter

Hourly Weather History & Observations

Time (EDT) Temp. Dew Point Humidity Pressure Visibility Wind Dir Wind Speed Gust Speed Precip Events Conditions
12:15 AM 59.9 °F 59.5 °F 99% 30.07 in 10.0 mi Calm Calm - N/A   Scattered Clouds
12:35 AM 59.9 °F 59.5 °F 99% 30.06 in 10.0 mi Calm Calm - N/A   Scattered Clouds
12:55 AM 59.9 °F 59.2 °F 97% 30.06 in 4.0 mi SW 3.5 mph - N/A   Mostly Cloudy
1:15 AM 60.1 °F 59.9 °F 99% 30.06 in 10.0 mi Calm Calm - N/A   Overcast
1:35 AM 60.4 °F 60.1 °F 99% 30.05 in 10.0 mi Calm Calm - N/A   Overcast
1:55 AM 60.8 °F 60.4 °F 99% 30.05 in 10.0 mi Calm Calm - N/A   Overcast
2:15 AM 61.3 °F 60.8 °F 98% 30.04 in 10.0 mi Calm Calm - N/A   Overcast
2:35 AM 61.3 °F 60.8 °F 98% 30.03 in 10.0 mi Calm Calm - N/A   Overcast
2:55 AM 61.7 °F 61.2 °F 98% 30.03 in 10.0 mi Calm Calm - N/A   Overcast
3:15 AM 61.7 °F 61.2 °F 98% 30.03 in 10.0 mi West 5.8 mph - N/A   Overcast
3:35 AM 62.1 °F 61.2 °F 97% 30.01 in 10.0 mi Calm Calm - N/A   Overcast
3:55 AM 62.8 °F 61.3 °F 95% 29.99 in 10.0 mi North 4.6 mph - N/A   Overcast
4:15 AM 63.0 °F 61.7 °F 96% 30.00 in 10.0 mi Calm Calm - N/A   Overcast
4:35 AM 63.9 °F 61.3 °F 91% 29.99 in 10.0 mi Calm Calm - N/A   Overcast
4:55 AM 65.1 °F 61.2 °F 87% 29.98 in 10.0 mi Calm Calm - N/A   Overcast
5:15 AM 64.9 °F 61.2 °F 88% 29.96 in 10.0 mi Calm Calm - N/A   Overcast
5:35 AM 64.0 °F 61.7 °F 92% 29.96 in 10.0 mi Calm Calm - N/A   Overcast
5:55 AM 64.9 °F 61.5 °F 89% 29.97 in 7.0 mi Calm Calm - 0.01 in Rain Rain
6:15 AM 64.6 °F 62.1 °F 92% 29.97 in 10.0 mi NW 6.9 mph - 0.01 in   Light Drizzle
6:35 AM 64.4 °F 62.1 °F 92% 29.96 in 10.0 mi Calm Calm - 0.01 in   Overcast
6:55 AM 63.7 °F 62.6 °F 96% 29.96 in 10.0 mi West 3.5 mph - 0.01 in   Overcast
7:15 AM 63.9 °F 62.8 °F 96% 29.96 in 10.0 mi West 3.5 mph - N/A   Overcast
7:35 AM 67.6 °F 63.0 °F 85% 29.95 in 10.0 mi South 6.9 mph - N/A Rain Light Rain
7:55 AM 66.2 °F 63.9 °F 92% 29.96 in 7.0 mi NW 4.6 mph - 0.05 in Rain Rain
8:15 AM 64.9 °F 64.0 °F 97% 29.95 in 7.0 mi Calm Calm - 0.02 in Rain Rain
8:35 AM 64.9 °F 64.4 °F 98% 29.96 in 7.0 mi Calm Calm - 0.02 in   Overcast
8:55 AM 65.3 °F 64.4 °F 97% 29.97 in 4.0 mi West 4.6 mph - 0.06 in Rain Heavy Rain
9:15 AM 66.4 °F 65.1 °F 96% 29.96 in 7.0 mi West 6.9 mph - 0.03 in Rain Light Rain
9:35 AM 66.2 °F 65.3 °F 97% 29.97 in 5.0 mi West 6.9 mph - 0.08 in Rain Rain
9:55 AM 66.4 °F 65.8 °F 98% 29.96 in 2.5 mi West 6.9 mph - 0.22 in Rain Rain
10:15 AM 67.6 °F 66.2 °F 95% 29.96 in 10.0 mi WSW 3.5 mph - 0.01 in Rain Light Rain
10:35 AM 68.2 °F 66.0 °F 93% 29.95 in 10.0 mi West 6.9 mph - 0.01 in   Overcast
10:55 AM 68.9 °F 66.0 °F 90% 29.94 in 10.0 mi West 8.1 mph - 0.01 in   Overcast
11:15 AM 68.9 °F 66.7 °F 93% 29.94 in 10.0 mi Calm Calm - N/A   Overcast
11:35 AM 70.0 °F 67.3 °F 91% 29.94 in 10.0 mi West 5.8 mph - N/A Rain Light Rain
11:55 AM 69.4 °F 67.1 °F 92% 29.94 in 10.0 mi WNW 10.4 mph - N/A Rain Light Rain
12:15 PM 69.1 °F 67.6 °F 95% 29.93 in 10.0 mi West 6.9 mph - N/A Rain Light Rain
12:35 PM 68.7 °F 67.3 °F 95% 29.94 in 10.0 mi West 8.1 mph - N/A   Light Drizzle
12:55 PM 72.1 °F 67.8 °F 86% 29.93 in 10.0 mi West 9.2 mph - N/A   Overcast
1:15 PM 70.9 °F 66.0 °F 85% 29.92 in 10.0 mi SW 4.6 mph - N/A   Overcast
1:35 PM 73.8 °F 66.9 °F 79% 29.91 in 10.0 mi WSW 13.8 mph 17.3 mph N/A   Overcast
1:55 PM 73.6 °F 65.5 °F 76% 29.90 in 10.0 mi WSW 15.0 mph 19.6 mph N/A   Overcast
2:15 PM 72.7 °F 65.5 °F 78% 29.89 in 10.0 mi West 15.0 mph - N/A   Mostly Cloudy
2:35 PM 70.7 °F 64.2 °F 80% 29.90 in 10.0 mi WSW 11.5 mph - N/A   Mostly Cloudy
2:55 PM 72.7 °F 64.6 °F 76% 29.89 in 10.0 mi West 10.4 mph - N/A   Mostly Cloudy
3:15 PM 70.9 °F 64.0 °F 79% 29.88 in 10.0 mi West 8.1 mph - N/A   Overcast
3:35 PM 70.9 °F 63.3 °F 77% 29.88 in 10.0 mi WSW 5.8 mph - N/A   Overcast
3:55 PM 70.0 °F 62.2 °F 76% 29.89 in 10.0 mi SW 8.1 mph - N/A   Overcast
4:15 PM 69.8 °F 62.2 °F 77% 29.89 in 10.0 mi WSW 11.5 mph - N/A   Overcast
4:35 PM 68.9 °F 62.4 °F 80% 29.89 in 10.0 mi WSW 10.4 mph - N/A   Overcast
4:55 PM 69.1 °F 62.6 °F 80% 29.89 in 10.0 mi West 10.4 mph - N/A   Mostly Cloudy
5:15 PM 68.9 °F 62.4 °F 80% 29.89 in 10.0 mi West 6.9 mph - N/A   Scattered Clouds
5:35 PM 68.4 °F 62.2 °F 81% 29.89 in 10.0 mi SW 5.8 mph - N/A   Mostly Cloudy
5:55 PM 68.7 °F 62.2 °F 80% 29.89 in 10.0 mi WSW 9.2 mph - N/A   Mostly Cloudy
6:15 PM 69.1 °F 61.9 °F 78% 29.89 in 10.0 mi SW 5.8 mph - N/A   Scattered Clouds
6:35 PM 68.2 °F 61.3 °F 79% 29.89 in 10.0 mi WSW 8.1 mph - N/A   Scattered Clouds
6:55 PM 67.1 °F 61.3 °F 82% 29.89 in 10.0 mi WSW 3.5 mph - N/A   Clear
7:15 PM 64.9 °F 61.7 °F 89% 29.89 in 10.0 mi NNW 3.5 mph - N/A   Clear
7:35 PM 63.0 °F 61.3 °F 94% 29.89 in 10.0 mi NNW 3.5 mph - N/A   Scattered Clouds
7:55 PM 63.3 °F 61.3 °F 93% 29.89 in 10.0 mi Calm Calm - N/A   Mostly Cloudy
8:15 PM 62.8 °F 61.2 °F 94% 29.89 in 10.0 mi Calm Calm - N/A   Overcast
8:35 PM 62.6 °F 61.3 °F 96% 29.89 in 10.0 mi Calm Calm - N/A   Overcast
8:55 PM 62.2 °F 61.2 °F 96% 29.89 in 10.0 mi Calm Calm - N/A   Overcast
9:15 PM 62.1 °F 61.2 °F 97% 29.89 in 10.0 mi Calm Calm - N/A   Overcast
9:35 PM 62.4 °F 61.3 °F 96% 29.89 in 10.0 mi Calm Calm - N/A   Overcast
9:55 PM 62.2 °F 61.3 °F 97% 29.89 in 10.0 mi Calm Calm - N/A   Overcast
10:15 PM 62.2 °F 61.5 °F 97% 29.88 in 10.0 mi Calm Calm - N/A   Drizzle
10:35 PM 62.1 °F 61.7 °F 99% 29.89 in 10.0 mi West 5.8 mph - N/A Rain Rain
10:55 PM 62.6 °F 61.3 °F 96% 29.91 in 10.0 mi WSW 4.6 mph - 0.01 in   Overcast
11:15 PM 61.5 °F 59.5 °F 93% 29.91 in 10.0 mi West 4.6 mph - N/A   Mostly Cloudy
11:35 PM 60.1 °F 57.6 °F 91% 29.92 in 10.0 mi West 5.8 mph - N/A   Mostly Cloudy
11:55 PM 58.5 °F 56.3 °F 93% 29.92 in 10.0 mi West 5.8 mph - N/A   Scattered Clouds